Time,TemperatureF,DewpointF,PressureIn,WindDirection,WindDirectionDegrees,WindSpeedMPH,WindSpeedGustMPH,Humidity,HourlyPrecipIn,Conditions,Clouds,dailyrainin,SoftwareType,DateUTC
2013-05-03 00:11:00,54.3,51.0,30.25,ESE,102,0.0,-999.0,89,-99.99,,,0.00,weatherlink.com 1.10,2013-05-03 04:11:00,
2013-05-03 00:26:00,53.9,51.0,30.25,ESE,102,0.0,-999.0,90,-99.99,,,0.00,weatherlink.com 1.10,2013-05-03 04:26:00,
2013-05-03 00:41:00,53.5,51.0,30.24,ESE,102,0.0,-999.0,91,-99.99,,,0.00,weatherlink.com 1.10,2013-05-03 04:41:00,
2013-05-03 00:56:00,53.0,51.0,30.24,ESE,102,0.0,-999.0,91,-99.99,,,0.00,weatherlink.com 1.10,2013-05-03 04:56:00,
2013-05-03 01:11:00,52.6,50.0,30.24,ESE,102,0.0,-999.0,92,-99.99,,,0.00,weatherlink.com 1.10,2013-05-03 05:11:00,
2013-05-03 01:26:00,52.2,50.0,30.24,ESE,102,0.0,-999.0,92,-99.99,,,0.00,weatherlink.com 1.10,2013-05-03 05:26:00,
2013-05-03 01:41:00,51.7,50.0,30.23,ESE,102,0.0,-999.0,92,-99.99,,,0.00,weatherlink.com 1.10,2013-05-03 05:41:00,
2013-05-03 01:56:00,51.3,49.0,30.23,ESE,102,0.0,-999.0,93,-99.99,,,0.00,weatherlink.com 1.10,2013-05-03 05:56:00,
2013-05-03 02:11:00,50.8,49.0,30.23,ESE,102,0.0,-999.0,93,-99.99,,,0.00,weatherlink.com 1.10,2013-05-03 06:11:00,
2013-05-03 02:26:00,50.3,49.0,30.23,ESE,102,0.0,-999.0,94,-99.99,,,0.00,weatherlink.com 1.10,2013-05-03 06:26:00,
2013-05-03 02:41:00,50.2,49.0,30.22,ESE,102,0.0,-999.0,94,-99.99,,,0.00,weatherlink.com 1.10,2013-05-03 06:41:00,
2013-05-03 02:56:00,49.9,49.0,30.22,ESE,102,0.0,-999.0,95,-99.99,,,0.00,weatherlink.com 1.10,2013-05-03 06:56:00,
2013-05-03 03:11:00,49.8,48.0,30.22,North,5,0.0,-999.0,94,-99.99,,,0.00,weatherlink.com 1.10,2013-05-03 07:11:00,
2013-05-03 03:26:00,49.7,48.0,30.22,North,5,0.0,-999.0,94,-99.99,,,0.00,weatherlink.com 1.10,2013-05-03 07:26:00,
2013-05-03 03:41:00,49.6,48.0,30.21,North,5,0.0,-999.0,95,-99.99,,,0.00,weatherlink.com 1.10,2013-05-03 07:41:00,
2013-05-03 03:56:00,49.3,48.0,30.21,North,5,0.0,-999.0,95,-99.99,,,0.00,weatherlink.com 1.10,2013-05-03 07:56:00,
2013-05-03 04:11:00,49.2,48.0,30.21,North,5,0.0,-999.0,94,-99.99,,,0.00,weatherlink.com 1.10,2013-05-03 08:11:00,
2013-05-03 04:26:00,49.0,47.0,30.21,North,5,0.0,-999.0,94,-99.99,,,0.00,weatherlink.com 1.10,2013-05-03 08:26:00,
2013-05-03 04:41:00,48.8,48.0,30.21,North,5,0.0,-999.0,95,-99.99,,,0.00,weatherlink.com 1.10,2013-05-03 08:41:00,
2013-05-03 04:56:00,48.7,47.0,30.21,North,5,0.0,-999.0,95,-99.99,,,0.00,weatherlink.com 1.10,2013-05-03 08:56:00,
2013-05-03 05:11:00,48.6,47.0,30.21,North,5,0.0,-999.0,94,-99.99,,,0.00,weatherlink.com 1.10,2013-05-03 09:11:00,
2013-05-03 05:26:00,48.5,47.0,30.21,North,5,0.0,-999.0,94,-99.99,,,0.00,weatherlink.com 1.10,2013-05-03 09:26:00,
2013-05-03 05:41:00,48.4,47.0,30.21,North,5,0.0,-999.0,94,-99.99,,,0.00,weatherlink.com 1.10,2013-05-03 09:41:00,
2013-05-03 05:56:00,48.3,47.0,30.21,NE,36,0.0,-999.0,94,-99.99,,,0.00,weatherlink.com 1.10,2013-05-03 09:56:00,
2013-05-03 06:11:00,48.2,47.0,30.22,NNE,13,0.0,-999.0,94,-99.99,,,0.00,weatherlink.com 1.10,2013-05-03 10:11:00,
2013-05-03 06:26:00,48.2,47.0,30.22,ENE,73,0.0,-999.0,94,-99.99,,,0.00,weatherlink.com 1.10,2013-05-03 10:26:00,
2013-05-03 06:41:00,48.3,47.0,30.22,ESE,112,0.0,-999.0,94,-99.99,,,0.00,weatherlink.com 1.10,2013-05-03 10:41:00,
2013-05-03 06:56:00,48.6,47.0,30.22,NNW,327,1.0,-999.0,94,-99.99,,,0.00,weatherlink.com 1.10,2013-05-03 10:56:00,
2013-05-03 07:11:00,48.8,47.0,30.23,WNW,300,0.0,-999.0,94,-99.99,,,0.00,weatherlink.com 1.10,2013-05-03 11:11:00,
2013-05-03 07:26:00,49.0,47.0,30.24,NNW,338,0.0,-999.0,94,-99.99,,,0.00,weatherlink.com 1.10,2013-05-03 11:26:00,
2013-05-03 07:41:00,49.2,48.0,30.24,North,5,0.0,-999.0,94,-99.99,,,0.00,weatherlink.com 1.10,2013-05-03 11:41:00,
2013-05-03 07:57:00,49.7,48.0,30.25,NNE,13,0.0,-999.0,93,-99.99,,,0.00,weatherlink.com 1.10,2013-05-03 11:57:00,
2013-05-03 08:11:00,50.9,49.0,30.25,NNE,31,0.0,-999.0,92,-99.99,,,0.00,weatherlink.com 1.10,2013-05-03 12:11:00,
2013-05-03 08:26:00,52.2,49.0,30.25,SSE,161,2.0,-999.0,90,-99.99,,,0.00,weatherlink.com 1.10,2013-05-03 12:26:00,
2013-05-03 08:41:00,53.4,50.0,30.25,SSW,199,0.0,-999.0,88,-99.99,,,0.00,weatherlink.com 1.10,2013-05-03 12:41:00,
2013-05-03 08:56:00,55.2,51.0,30.25,ESE,111,0.0,-999.0,86,-99.99,,,0.00,weatherlink.com 1.10,2013-05-03 12:56:00,
2013-05-03 09:11:00,55.8,51.0,30.25,East,79,2.0,-999.0,84,-99.99,,,0.00,weatherlink.com 1.10,2013-05-03 13:11:00,
2013-05-03 09:26:00,57.0,52.0,30.25,East,96,0.0,-999.0,84,-99.99,,,0.00,weatherlink.com 1.10,2013-05-03 13:26:00,
2013-05-03 09:41:00,57.6,53.0,30.25,SE,144,7.0,-999.0,83,-99.99,,,0.00,weatherlink.com 1.10,2013-05-03 13:41:00,
2013-05-03 09:56:00,58.3,53.0,30.25,NE,55,0.0,-999.0,83,-99.99,,,0.00,weatherlink.com 1.10,2013-05-03 13:56:00,
2013-05-03 10:11:00,59.0,53.0,30.25,NNW,342,0.0,-999.0,81,-99.99,,,0.00,weatherlink.com 1.10,2013-05-03 14:11:00,
2013-05-03 10:26:00,59.4,54.0,30.26,SE,129,4.0,-999.0,81,-99.99,,,0.00,weatherlink.com 1.10,2013-05-03 14:26:00,
2013-05-03 10:41:00,58.6,53.0,30.26,ESE,119,7.0,-999.0,81,-99.99,,,0.00,weatherlink.com 1.10,2013-05-03 14:41:00,
2013-05-03 10:56:00,58.3,53.0,30.26,East,98,5.0,-999.0,82,-99.99,,,0.00,weatherlink.com 1.10,2013-05-03 14:56:00,
2013-05-03 11:11:00,58.6,53.0,30.27,ENE,74,1.0,-999.0,81,-99.99,,,0.00,weatherlink.com 1.10,2013-05-03 15:11:00,
2013-05-03 11:26:00,59.8,54.0,30.26,East,98,5.0,-999.0,80,-99.99,,,0.00,weatherlink.com 1.10,2013-05-03 15:26:00,
2013-05-03 11:41:00,60.9,54.0,30.26,NNE,12,2.0,-999.0,77,-99.99,,,0.00,weatherlink.com 1.10,2013-05-03 15:41:00,
2013-05-03 11:56:00,61.3,54.0,30.26,ENE,75,0.0,-999.0,77,-99.99,,,0.00,weatherlink.com 1.10,2013-05-03 15:56:00,
2013-05-03 12:11:00,61.3,54.0,30.25,ESE,108,0.0,-999.0,78,-99.99,,,0.00,weatherlink.com 1.10,2013-05-03 16:11:00,
2013-05-03 12:26:00,62.0,54.0,30.25,West,266,0.0,-999.0,75,-99.99,,,0.00,weatherlink.com 1.10,2013-05-03 16:26:00,
2013-05-03 12:41:00,63.6,54.0,30.25,NNW,347,1.0,-999.0,72,-99.99,,,0.00,weatherlink.com 1.10,2013-05-03 16:41:00,
2013-05-03 12:56:00,64.3,55.0,30.23,East,98,0.0,-999.0,72,-99.99,,,0.00,weatherlink.com 1.10,2013-05-03 16:56:00,
2013-05-03 13:11:00,65.6,54.0,30.23,East,96,2.0,-999.0,67,-99.99,,,0.00,weatherlink.com 1.10,2013-05-03 17:11:00,
2013-05-03 13:26:00,65.8,54.0,30.23,ENE,73,0.0,-999.0,67,-99.99,,,0.00,weatherlink.com 1.10,2013-05-03 17:26:00,
2013-05-03 13:41:00,65.1,55.0,30.22,NNW,348,0.0,-999.0,69,-99.99,,,0.00,weatherlink.com 1.10,2013-05-03 17:41:00,
2013-05-03 13:56:00,66.5,55.0,30.21,ENE,67,0.0,-999.0,66,-99.99,,,0.00,weatherlink.com 1.10,2013-05-03 17:56:00,
2013-05-03 14:11:00,67.5,55.0,30.21,South,176,1.0,-999.0,64,-99.99,,,0.00,weatherlink.com 1.10,2013-05-03 18:11:00,
2013-05-03 14:26:00,66.7,55.0,30.20,NNW,341,0.0,-999.0,66,-99.99,,,0.00,weatherlink.com 1.10,2013-05-03 18:26:00,
2013-05-03 14:41:00,67.6,55.0,30.19,NE,54,0.0,-999.0,65,-99.99,,,0.00,weatherlink.com 1.10,2013-05-03 18:41:00,
2013-05-03 14:57:00,67.2,55.0,30.19,NE,34,0.0,-999.0,64,-99.99,,,0.00,weatherlink.com 1.10,2013-05-03 18:57:00,
2013-05-03 15:27:00,68.1,54.0,30.18,ESE,107,3.0,-999.0,62,-99.99,,,0.00,weatherlink.com 1.10,2013-05-03 19:27:00,
2013-05-03 15:42:00,68.3,54.0,30.17,NE,46,0.0,-999.0,60,-99.99,,,0.00,weatherlink.com 1.10,2013-05-03 19:42:00,
2013-05-03 15:57:00,68.8,54.0,30.16,ENE,62,6.0,-999.0,59,-99.99,,,0.00,weatherlink.com 1.10,2013-05-03 19:57:00,
2013-05-03 16:12:00,68.1,54.0,30.16,ESE,119,2.0,-999.0,60,-99.99,,,0.00,weatherlink.com 1.10,2013-05-03 20:12:00,
2013-05-03 16:27:00,68.7,54.0,30.16,ESE,119,0.0,-999.0,59,-99.99,,,0.00,weatherlink.com 1.10,2013-05-03 20:27:00,
2013-05-03 16:42:00,67.8,54.0,30.16,ESE,113,0.0,-999.0,62,-99.99,,,0.00,weatherlink.com 1.10,2013-05-03 20:42:00,
2013-05-03 16:57:00,67.5,53.0,30.15,NNE,33,5.0,-999.0,61,-99.99,,,0.00,weatherlink.com 1.10,2013-05-03 20:57:00,
2013-05-03 17:12:00,67.8,52.0,30.16,East,83,4.0,-999.0,58,-99.99,,,0.00,weatherlink.com 1.10,2013-05-03 21:12:00,
2013-05-03 17:26:00,67.9,50.0,30.16,ENE,61,1.0,-999.0,54,-99.99,,,0.00,weatherlink.com 1.10,2013-05-03 21:26:00,
2013-05-03 17:41:00,67.8,50.0,30.16,East,98,1.0,-999.0,54,-99.99,,,0.00,weatherlink.com 1.10,2013-05-03 21:41:00,
2013-05-03 17:56:00,66.8,48.0,30.16,NNE,32,0.0,-999.0,52,-99.99,,,0.00,weatherlink.com 1.10,2013-05-03 21:56:00,
2013-05-03 18:11:00,66.3,47.0,30.16,ESE,120,0.0,-999.0,51,-99.99,,,0.00,weatherlink.com 1.10,2013-05-03 22:11:00,
2013-05-03 18:26:00,65.9,48.0,30.15,ESE,112,0.0,-999.0,52,-99.99,,,0.00,weatherlink.com 1.10,2013-05-03 22:26:00,
2013-05-03 18:41:00,65.4,47.0,30.16,NNE,32,0.0,-999.0,52,-99.99,,,0.00,weatherlink.com 1.10,2013-05-03 22:41:00,
2013-05-03 18:56:00,64.1,45.0,30.16,ENE,74,6.0,-999.0,50,-99.99,,,0.00,weatherlink.com 1.10,2013-05-03 22:56:00,
2013-05-03 19:11:00,63.3,45.0,30.17,NW,317,4.0,-999.0,52,-99.99,,,0.00,weatherlink.com 1.10,2013-05-03 23:11:00,
2013-05-03 19:26:00,62.4,45.0,30.17,ESE,113,0.0,-999.0,53,-99.99,,,0.00,weatherlink.com 1.10,2013-05-03 23:26:00,
2013-05-03 19:41:00,61.2,44.0,30.18,NE,49,4.0,-999.0,54,-99.99,,,0.00,weatherlink.com 1.10,2013-05-03 23:41:00,
2013-05-03 19:56:00,60.4,44.0,30.18,ENE,73,0.0,-999.0,56,-99.99,,,0.00,weatherlink.com 1.10,2013-05-03 23:56:00,
2013-05-03 20:11:00,59.8,44.0,30.19,ENE,69,0.0,-999.0,57,-99.99,,,0.00,weatherlink.com 1.10,2013-05-04 00:11:00,
2013-05-03 20:26:00,59.0,45.0,30.19,NE,51,7.0,-999.0,61,-99.99,,,0.00,weatherlink.com 1.10,2013-05-04 00:26:00,
2013-05-03 20:41:00,58.2,45.0,30.20,NNE,22,0.0,-999.0,63,-99.99,,,0.00,weatherlink.com 1.10,2013-05-04 00:41:00,
2013-05-03 20:56:00,57.3,46.0,30.20,ESE,113,4.0,-999.0,66,-99.99,,,0.00,weatherlink.com 1.10,2013-05-04 00:56:00,
2013-05-03 21:11:00,56.7,46.0,30.21,NE,36,2.0,-999.0,67,-99.99,,,0.00,weatherlink.com 1.10,2013-05-04 01:11:00,
2013-05-03 21:26:00,56.1,46.0,30.21,East,101,0.0,-999.0,68,-99.99,,,0.00,weatherlink.com 1.10,2013-05-04 01:26:00,
2013-05-03 21:41:00,55.4,46.0,30.22,NNE,30,1.0,-999.0,70,-99.99,,,0.00,weatherlink.com 1.10,2013-05-04 01:41:00,
2013-05-03 21:56:00,54.9,46.0,30.22,ENE,74,0.0,-999.0,71,-99.99,,,0.00,weatherlink.com 1.10,2013-05-04 01:56:00,
2013-05-03 22:11:00,54.3,45.0,30.22,SE,145,1.0,-999.0,71,-99.99,,,0.00,weatherlink.com 1.10,2013-05-04 02:11:00,
2013-05-03 22:26:00,53.7,45.0,30.22,NE,36,1.0,-999.0,72,-99.99,,,0.00,weatherlink.com 1.10,2013-05-04 02:26:00,
2013-05-03 22:41:00,53.2,45.0,30.22,SE,140,0.0,-999.0,73,-99.99,,,0.00,weatherlink.com 1.10,2013-05-04 02:41:00,
2013-05-03 22:56:00,52.7,45.0,30.22,ESE,105,0.0,-999.0,74,-99.99,,,0.00,weatherlink.com 1.10,2013-05-04 02:56:00,
2013-05-03 23:11:00,52.3,45.0,30.21,ENE,72,0.0,-999.0,75,-99.99,,,0.00,weatherlink.com 1.10,2013-05-04 03:11:00,
2013-05-03 23:26:00,51.9,45.0,30.21,ESE,122,0.0,-999.0,76,-99.99,,,0.00,weatherlink.com 1.10,2013-05-04 03:26:00,
2013-05-03 23:41:00,51.6,45.0,30.21,ESE,109,0.0,-999.0,77,-99.99,,,0.00,weatherlink.com 1.10,2013-05-04 03:41:00,
2013-05-03 23:56:00,51.4,44.0,30.21,ESE,107,0.0,-999.0,77,-99.99,,,0.00,weatherlink.com 1.10,2013-05-04 03:56:00,